DW2513 Weather Reports


Display with metric or nautical units.
time (UTC)temp
F
wind
direction
speed
MPH
gust
MPH
rain 1hr
in
rain 24hr
in
rain mn
in
humidity
%
barometer
mb
20260510101305 48 133 0.0 0.0 0.00 0.33 0.00 86 1005.9
20260510100804 48 133 0.0 0.0 0.00 0.33 0.00 86 1005.9
20260510100305 48 133 0.0 0.0 0.00 0.33 0.00 86 1005.9
20260510095804 48 133 0.0 0.0 0.00 0.33 0.00 86 1005.9
20260510095306 48 133 0.0 0.0 0.00 0.33 0.00 86 1005.9
20260510094304 48 133 0.0 0.0 0.00 0.33 0.00 86 1005.9
20260510093804 48 133 0.0 0.0 0.00 0.33 0.00 86 1005.9
20260510092805 48 133 0.0 0.0 0.00 0.33 0.00 85 1005.9
20260510090304 48 133 0.0 0.0 0.00 0.33 0.00 85 1006.3
20260510083304 48 133 0.0 0.0 0.00 0.33 0.00 85 1006.3
20260510082805 48 133 0.0 0.0 0.00 0.33 0.00 85 1006.3
20260510081804 48 133 0.0 0.0 0.00 0.33 0.00 85 1006.3
20260510081305 48 133 0.0 0.0 0.00 0.33 0.00 85 1006.3
20260510080304 47 133 0.0 0.0 0.00 0.33 0.00 85 1006.3
20260510075306 47 133 0.0 0.0 0.00 0.33 0.00 85 1006.3
20260510074305 47 133 0.0 0.0 0.00 0.33 0.00 85 1006.3
20260510072306 47 133 0.0 0.0 0.00 0.33 0.00 85 1006.3
20260510071304 48 133 0.0 2.0 0.00 0.33 0.00 85 1006.3
20260510070804 48 133 1.0 3.0 0.00 0.33 0.00 85 1006.3
20260510070305 48 133 0.0 0.0 0.00 0.33 0.00 85 1006.3
20260510064804 48 133 0.0 0.0 0.00 0.33 0.00 84 1006.7
20260510063805 48 133 0.0 0.0 0.00 0.33 0.00 84 1006.8
20260510054304 47 133 0.0 0.0 0.00 0.33 0.00 83 1006.9
20260510053804 47 133 0.0 0.0 0.00 0.33 0.00 83 1006.9
20260510052804 47 133 0.0 0.0 0.00 0.33 0.00 83 1007.1
20260510051305 47 133 0.0 0.0 0.00 0.33 0.00 82 1007.1
20260510050804 47 133 0.0 0.0 0.00 0.33 0.00 82 1007.1
20260510044804 47 133 0.0 0.0 0.00 0.33 0.00 82 1007.1
20260510044305 47 133 0.0 0.0 0.00 0.33 0.00 81 1007.1
20260510042804 47 133 0.0 0.0 0.00 0.33 0.00 81 1007.1
20260510042306 47 133 0.0 3.0 0.00 0.33 0.00 81 1007.1
20260510041804 47 133 0.0 0.0 0.00 0.33 0.00 81 1007.1
20260510041304 48 133 0.0 0.0 0.00 0.33 0.00 81 1007.1
20260510040821 48 133 0.0 0.0 0.00 0.33 0.00 81 1007.1
20260510040305 48 133 0.0 0.0 0.00 0.33 0.00 80 1007.1
20260510035804 48 133 0.0 0.0 0.00 0.33 0.33 80 1007.1
20260510035306 48 133 0.0 0.0 0.00 0.33 0.33 80 1007.1
20260510034804 48 133 0.0 0.0 0.00 0.33 0.33 80 1007.1
20260510034305 47 133 0.0 0.0 0.00 0.33 0.33 80 1007.1
20260510033304 47 133 0.0 0.0 0.00 0.33 0.33 80 1007.1
20260510032805 47 133 0.0 0.0 0.00 0.33 0.33 80 1007.1
20260510032306 47 128 0.0 5.0 0.00 0.33 0.33 80 1007.2
20260510031804 47 128 0.0 2.0 0.00 0.33 0.33 79 1007.2
20260510031304 47 128 0.0 0.0 0.00 0.33 0.33 79 1007.2
20260510030305 47 157 0.0 0.0 0.00 0.33 0.33 79 1007.3
20260510024804 47 157 2.0 6.0 0.00 0.33 0.33 79 1007.3
20260510024304 47 155 3.0 5.0 0.00 0.33 0.33 80 1007.3
20260510023304 47 151 2.0 3.0 0.00 0.33 0.33 80 1007.4
20260510022804 47 152 0.0 2.0 0.00 0.33 0.33 80 1007.4
20260510021804 47 157 0.0 2.0 0.00 0.33 0.33 80 1007.5
20260510020804 47 152 0.0 0.0 0.00 0.33 0.33 80 1007.4
20260510020304 47 153 0.0 3.0 0.00 0.33 0.33 80 1007.4
20260510015306 47 119 0.0 0.0 0.00 0.33 0.33 80 1007.5
20260510014805 47 119 0.0 0.0 0.00 0.33 0.33 80 1007.5
20260510013804 47 118 0.0 6.0 0.00 0.33 0.33 80 1007.5
20260510012307 47 153 0.0 3.0 0.00 0.33 0.33 80 1007.5
20260510011306 47 150 0.0 0.0 0.00 0.33 0.33 80 1007.5
20260510010804 47 150 0.0 3.0 0.00 0.33 0.33 80 1007.5
20260510005804 47 148 0.0 0.0 0.00 0.33 0.33 80 1007.5
20260510005306 47 144 0.0 0.0 0.00 0.33 0.33 80 1007.5
20260510003304 47 144 0.0 0.0 0.00 0.33 0.33 80 1007.3
20260510002804 47 136 1.0 10.0 0.00 0.33 0.33 80 1007.3
20260510002306 47 163 0.0 0.0 0.00 0.33 0.33 80 1007.3
20260510001304 47 163 0.0 0.0 0.00 0.33 0.33 80 1006.9
20260510000804 47 163 1.0 3.0 0.00 0.33 0.33 81 1006.9
20260509235804 47 161 2.0 3.0 0.00 0.33 0.33 81 1006.9
20260509234805 47 161 0.0 3.0 0.00 0.33 0.33 81 1006.9
20260509233805 47 144 0.0 0.0 0.00 0.33 0.33 81 1006.9
20260509233305 47 144 0.0 0.0 0.00 0.33 0.33 81 1006.9
20260509232306 47 143 0.0 0.0 0.00 0.33 0.33 82 1006.9
20260509231804 47 144 0.0 0.0 0.00 0.33 0.33 82 1006.9
20260509230804 47 126 0.0 2.0 0.00 0.33 0.33 83 1006.9
20260509230304 47 126 0.0 2.0 0.00 0.33 0.33 83 1006.9
20260509224804 47 201 0.0 3.0 0.00 0.33 0.33 84 1006.9
20260509224305 47 228 0.0 2.0 0.00 0.33 0.33 84 1007.0
20260509223305 47 229 0.0 0.0 0.00 0.33 0.33 85 1007.0
20260509220804 47 229 0.0 0.0 0.00 0.33 0.33 85 1007.0
20260509215805 47 229 0.0 0.0 0.00 0.33 0.33 84 1007.3
20260509214805 47 229 0.0 1.0 0.00 0.33 0.33 84 1007.3
20260509214304 47 229 0.0 0.0 0.01 0.33 0.33 84 1007.4
20260509211805 48 244 0.0 0.0 0.02 0.33 0.33 84 1007.6
20260509210805 47 244 0.0 0.0 0.02 0.33 0.33 84 1007.6
20260509210304 47 244 0.0 0.0 0.03 0.33 0.33 84 1007.6
20260509204305 47 244 0.0 0.0 0.04 0.32 0.32 85 1007.6
20260509203804 47 244 0.0 0.0 0.05 0.32 0.32 85 1007.6
20260509200804 48 319 0.0 0.0 0.06 0.31 0.31 86 1007.8
20260509200304 48 319 0.0 0.0 0.05 0.30 0.30 86 1007.8
20260509195804 48 319 0.0 0.0 0.05 0.30 0.30 85 1007.8
20260509194304 47 319 0.0 0.0 0.05 0.28 0.28 85 1007.8
20260509193304 47 319 0.0 0.0 0.05 0.27 0.27 85 1008.4
20260509191804 47 319 0.0 0.0 0.05 0.26 0.26 85 1008.4
20260509190304 47 319 0.0 0.0 0.06 0.25 0.25 85 1008.4
20260509184304 46 321 0.0 0.0 0.06 0.23 0.23 84 1008.4
20260509182804 46 321 0.0 0.0 0.06 0.22 0.22 84 1008.4
20260509180304 46 321 0.0 0.0 0.06 0.19 0.19 83 1008.5
20260509173305 46 321 0.0 0.0 0.06 0.16 0.16 82 1009.0
20260509170305 45 321 0.0 0.0 0.06 0.13 0.13 82 1009.4
20260509165804 45 321 0.0 0.0 0.07 0.13 0.13 82 1009.4
20260509165306 45 321 0.0 0.0 0.06 0.12 0.12 82 1009.4
20260509164805 45 321 0.0 0.0 0.07 0.12 0.12 82 1009.5
20260509162804 45 321 0.0 0.0 0.08 0.10 0.10 81 1009.5
20260509160305 45 327 0.0 0.0 0.06 0.07 0.07 80 1009.9
20260509154804 45 325 0.0 0.0 0.04 0.05 0.05 79 1010.0
20260509152804 44 325 0.0 1.0 0.02 0.02 0.02 78 1010.0
20260509152306 44 74 0.0 0.0 0.02 0.02 0.02 77 1010.0
20260509151804 44 74 0.0 0.0 0.02 0.02 0.02 76 1010.0
20260509151304 45 74 0.0 0.0 0.02 0.02 0.02 75 1010.0
20260509150304 45 74 0.0 0.0 0.01 0.01 0.01 74 1010.0
20260509145805 45 74 0.0 0.0 0.01 0.01 0.01 74 1010.0
20260509144804 45 355 0.0 1.0 0.01 0.01 0.01 72 1009.9
20260509143804 45 11 0.0 0.0 0.00 0.00 0.00 71 1009.9
20260509143304 45 9 0.0 0.0 0.00 0.00 0.00 69 1009.9
20260509142307 45 44 0.0 0.0 0.00 0.00 0.00 67 1009.9
20260509140304 46 43 0.0 0.0 0.00 0.00 0.00 62 1009.9
20260509135804 46 43 0.0 0.0 0.00 0.00 0.00 61 1009.9
20260509135306 46 43 0.0 0.0 0.00 0.00 0.00 59 1009.9
20260509133804 45 43 0.0 0.0 0.00 0.00 0.00 58 1010.0
20260509133304 45 43 0.0 1.0 0.00 0.00 0.00 58 1010.0
20260509132805 45 79 0.0 0.0 0.00 0.00 0.00 58 1010.0
20260509132306 45 79 0.0 0.0 0.00 0.00 0.00 59 1010.0
20260509131804 45 79 0.0 0.0 0.00 0.00 0.00 58 1010.0
20260509130805 45 79 0.0 0.0 0.00 0.00 0.00 60 1010.0
20260509130304 44 79 0.0 0.0 0.00 0.00 0.00 60 1010.0
20260509125804 44 79 0.0 0.0 0.00 0.00 0.00 60 1010.0
20260509125307 44 79 0.0 0.0 0.00 0.00 0.00 60 1010.0
20260509124804 43 79 0.0 0.0 0.00 0.00 0.00 62 1010.0
20260509124304 43 79 0.0 0.0 0.00 0.00 0.00 63 1010.0
20260509123804 42 79 0.0 0.0 0.00 0.00 0.00 63 1010.4
20260509122805 42 83 0.0 0.0 0.00 0.00 0.00 64 1010.4
20260509121804 41 83 0.0 0.0 0.00 0.00 0.00 66 1010.9
20260509121304 41 83 0.0 0.0 0.00 0.00 0.00 66 1010.9
20260509115804 40 83 0.0 0.0 0.00 0.00 0.00 68 1010.9
20260509114304 38 83 0.0 0.0 0.00 0.00 0.00 71 1010.9
20260509113805 38 83 0.0 0.0 0.00 0.00 0.00 73 1010.9
20260509111804 36 83 0.0 0.0 0.00 0.00 0.00 76 1010.5
20260509110304 35 83 0.0 0.0 0.00 0.00 0.00 77 1010.5
20260509105804 35 83 0.0 0.0 0.00 0.00 0.00 77 1010.5
20260509104805 35 83 0.0 0.0 0.00 0.00 0.00 78 1010.5
20260509103304 34 83 0.0 0.0 0.00 0.00 0.00 78 1010.5